Regional Weather Roundup
Issued by NWS

Home | Current Version | Previous Version | Text Only | Print | Product List | Glossary Off
Versions: 1 2 3 4 5 6 7 8 9 10 11 12 13 14 15 16 17 18 19 20 21 22 23 24 25 26 27 28 29 30 31 32 33 34 35 36 37 38 39 40 41 42 43 44 45 46 47 48 49 50

000
ASUS43 KMKX 230400
RWRWI

WISCONSIN REGIONAL WEATHER ROUNDUP
NATIONAL WEATHER SERVICE MILWAUKEE/SULLIVAN WI
1000 PM CST MON DEC 22 2014

NOTE: "FAIR" INDICATES FEW OR NO CLOUDS BELOW 12,000 FEET WITH NO
SIGNIFICANT WEATHER AND/OR OBSTRUCTIONS TO VISIBILITY.

WIZ001-002-006>008-014>016-023>028-230500-
NORTHWEST WISCONSIN

CITY           SKY/WX    TMP DP  RH WIND       PRES   REMARKS
SUPERIOR ARPT  CLOUDY    36  34  94 E9        29.74S FOG     WCI  29
ASHLAND        CLOUDY    34  32  92 NE8       29.76S WCI  27
HAYWARD        CLOUDY    35  30  82 E6        29.70S HAZE    WCI  30
SIREN          CLOUDY    35  32  90 E6        29.69S WCI  30
CUMBERLAND     CLOUDY    34  32  93 E8        29.66F WCI  27
RICE LAKE      CLOUDY    35  31  87 E13       29.69S WCI  26
CHETEK         LGT RAIN  34  32  93 E6        29.67S WCI  29
LADYSMITH      LGT SNOW  34  32  93 E9        29.71S WCI  26
EAU CLAIRE     CLOUDY    33  31  92 NE12      29.64F FOG     WCI  24
MENOMONIE      LGT RAIN  34  33  95 NE12      29.65F WCI  26
NEW RICHMOND   CLOUDY    35  33  92 E10       29.64S FOG     WCI  27
OSCEOLA        CLOUDY    36  35  96 E8        29.67S WCI  29
$$

WIZ003>005-009-010-017-018-230500-
NORTH CENTRAL WISCONSIN

CITY           SKY/WX    TMP DP  RH WIND       PRES   REMARKS
MANITOWISH WTR LGT SNOW  31  30  99 E7        29.73S WCI  24
ARBOR VITAE    LGT SNOW  32  30  92 E8        29.72F WCI  25
WOODRUFF       LGT SNOW  32  30  92 E8        29.72F WCI  25
RHINELANDER    LGT SNOW  30  28  92 E12       29.72F FOG     WCI  20
EAGLE RIVER    LGT SNOW  31  30  96 E12       29.74F WCI  22
LAND O LAKES   LGT SNOW  31  30  94 E7        29.76F WCI  25
PHILLIPS       LGT SNOW  32  30  94 E7        29.70S WCI  25
TOMAHAWK       LGT SNOW  31  29  94 E8        29.71F WCI  24
MEDFORD        LGT SNOW  32  31  96 E12G17    29.67S WCI  23
MERRILL        LGT SNOW  32  31  96 E8        29.70F WCI  25
$$

WIZ029-030-035-036-043>047-230500-
CENTRAL WISCONSIN

CITY           SKY/WX    TMP DP  RH WIND       PRES   REMARKS
WAUSAU         LGT SNOW  32  31  96 E13       29.67F FOG     WCI  22
MOSINEE        LGT SNOW  32  32 100 E13       29.69S WCI  22
MARSHFIELD     LGT SNOW  33  31  92 E14       29.65F FOG     WCI  23
STEVENS POINT  LGT SNOW  31  31  97 E9        29.68F WCI  23
WAUPACA        LGT RAIN  35  33  94 NE7       29.69F WCI  29
WAUTOMA        CLOUDY    34  34 100 NE8       29.67S FOG     WCI  27
WISC RAPIDS    MIX PCPN  33  30  88 E10       29.67S FOG     WCI  25
CAMP DOUGLAS   NOT AVBL
$$

WIZ011>013-019>022-031-037>040-048>050-230500-
NORTHEAST WISCONSIN

CITY           SKY/WX    TMP DP  RH WIND       PRES   REMARKS
ANTIGO         LGT SNOW  31  30  97 E17       29.71S WCI  19
SHAWANO        LGT SNOW  34  33  95 E10       29.74F WCI  26
OCONTO         CLOUDY    32  32 100 E6        29.77F WCI  27
STURGEON BAY   CLOUDY    36  32  87 E10G18    29.79S WCI  28
GREEN BAY      LGT RAIN  35  34  96 E10       29.73F FOG     WCI  27
MANITOWOC      NOT AVBL
APPLETON       LGT RAIN  36  36 100 E10G17    29.69  WCI  28
CLINTONVILLE   LGT SNOW  32  32 100 E12       29.71F WCI  23
OSHKOSH        LGT RAIN  37  35  92 SE9       29.67F FOG     WCI  30
$$

WIZ032>034-041-042-053>061-230500-
SOUTHWEST WISCONSIN

CITY           SKY/WX    TMP DP  RH WIND       PRES   REMARKS
LA CROSSE      CLOUDY    36  33  89 E7        29.60S WCI  30
SPARTA         CLOUDY    34  33  98 E8        29.63S FOG     WCI  27
VIROQUA        CLOUDY    33  33 100 E12       29.57F WCI  25
BOSCOBEL       CLOUDY    36  35  96 NE6       29.58F FOG     WCI  31
PRAIRIE DU CHI CLOUDY    37  35  93 E5        29.56F FOG     WCI  33
PLATTEVILLE    CLOUDY    37  36  96 CALM      29.56F
$$

WIZ056-057-062-063-064-067-068-230500-
SOUTH CENTRAL WISCONSIN

CITY           SKY/WX    TMP DP  RH WIND       PRES   REMARKS
REEDSBURG      CLOUDY    34  34 100 E8        29.60F FOG     WCI  27
BARABOO/DELLS  FOG       34  33  97 E7        29.61F VSB 3/4 WCI  28
LONE ROCK      NOT AVBL
MINERAL POINT  CLOUDY    37  36  93 E8        29.56F FOG     WCI  31
MADISON        LGT RAIN  38  36  92 E8        29.60F FOG     WCI  32
MIDDLETON      CLOUDY    38  38 100 E6        29.60F WCI  33
WATERTOWN      CLOUDY    38  38 100 E9G16     29.62F WCI  31
MONROE         FOG       36  36 100 E6        29.56F VSB 1/4 WCI  31
JANESVILLE     CLOUDY    37  37 100 E9        29.59F FOG     WCI  31
$$

WIZ051-052-058>065-066-070>072-230500-
SOUTHEAST WISCONSIN

CITY           SKY/WX    TMP DP  RH WIND       PRES   REMARKS
MILWAUKEE      LGT RAIN  39  37  92 SE20      29.67F FOG     WCI  29
WAUKESHA       LGT RAIN  36  36 100 SE10      29.66S WCI  28
MILWAUKEE/TIMM LGT RAIN  37  36  93 SE10G18   29.68S WCI  30
RACINE         LGT RAIN  40  38  93 SE13      29.68F FOG     WCI  32
BURLINGTON     MIX PCPN  37  37  97 SE13G18   29.64S WCI  29
KENOSHA        LGT RAIN  40  38  93 SE14G22   29.65F FOG     WCI  32
FOND DU LAC    LGT RAIN  38  35  89 SE13G21   29.66S FOG     WCI  30
SHEBOYGAN      LGT RAIN  38  32  79 SE10      29.70F WCI  31
WEST BEND      LGT RAIN  37  36  93 SE10G20   29.67S WCI  30
JUNEAU         DRIZZLE   37  37  99 E12       29.65F WCI  29
$$

LSZ147-162-230500-
LAKE SUPERIOR

STATION/POSITION TIME  TEMP    WIND        PRES    WAVE
                       AIR SEA DIR/SP/G            HT/PER
                 (UTC) (F)     (DEG/KT/KT) (MB)    (FT/S)
DEVILS ISLAND    0300   36      80/ 13/ 14 1008.9F
PORT WING        0340   34      40/ 10/ 11 1007.8S
SAXON HARBOR     0300   37      CALM  /  1 1007.8S
$$

LMZ867-665-643>646-230500-
LAKE MICHIGAN

STATION/POSITION TIME  TEMP    WIND        PRES    WAVE
                       AIR SEA DIR/SP/G            HT/PER
                 (UTC) (F)     (DEG/KT/KT) (MB)    (FT/S)
CHAMBERS ISLAND  0300   34      70/ 10/ 14 1009.8F
NORTHPORT PIER   0300   35     110/ 20/ 23 1010.2F
SISTER BAY       0213           90/ 12/ 19   N/A
ALGOMA LAKESHORE 0315          120/ 24/ 28   N/A
KEWAUNEE LAKESHO 0300   36     120/ 15/ 21 1007.2F
SHEBOYGAN LAKESH 0300   39 36  110/ 29/ 32 1006.2F
PORT WASHINGTON  0300   40     140/ 14/ 18 1006.4
MILWAUKEE LAKESH 0300   39     130/ 17/ 19   N/A
KENOSHA   LAKESH 0300   39     150/ 15/ 18 1004.7F
$$

TC  - TEMPERATURE IN CELSIUS
VSB - VISIBILITY IN STATUTE MILES
WCI - WIND CHILL INDEX
HX  - HEAT INDEX



USA.gov is the U.S. government's official web portal to all federal, state and local government web resources and services.